Regional Weather Roundup
Issued by NWS

Home | Current Version | Previous Version | Text Only | Print | Product List | Glossary On
Versions: 1 2 3 4 5 6 7 8 9 10 11 12 13 14 15 16 17 18 19 20 21 22 23 24 25 26 27 28 29 30 31 32 33 34 35 36 37 38 39 40 41 42 43 44 45 46 47 48 49 50
000
ASUS43 KOAX 302210
RWRNE

WEATHER ROUNDUP FOR NEBRASKA
NATIONAL WEATHER SERVICE OMAHA NE
500 PM CDT TUE SEP 30 2014

NOTES: SATELLITE DATA IS BEING USED TO AUGMENT CLOUD COVER ABOVE
       12000 FEET.
       "FAIR" INDICATES FEW OR NO CLOUDS BELOW 12,000 FEET WITH NO
       SIGNIFICANT WEATHER AND/OR OBSTRUCTIONS TO VISIBILITY.

  * THESE STATIONS DO NOT REPORT WEATHER SUCH AS RAIN...SNOW OR FOG.

NEZ001>004-019>022-054>056-302300-
NEBRASKA PANHANDLE

CITY           SKY/WX    TMP DP  RH WIND       PRES   REMARKS
SCOTTSBLUFF    MOSUNNY   68  42  38 W15       29.71S
ALLIANCE       MOSUNNY   67  40  37 W23G29    29.70R
CHADRON        MOSUNNY   69  45  41 W18G29    29.64S
KIMBALL        PTSUNNY   67  34  29 W17G31    29.77R
SIDNEY         CLOUDY    73  38  27 W20G26    29.76S
$$

NEZ057>060-069>072-079>082-302300-
SOUTHWEST NEBRASKA

CITY           SKY/WX    TMP DP  RH WIND       PRES   REMARKS
NORTH PLATTE   SUNNY     76  42  29 SW13G21   29.70F
IMPERIAL       PTSUNNY   75  39  27 S9G17     29.73F
LEXINGTON      SUNNY     78  44  29 S9        29.71S
MCCOOK         SUNNY     76  40  27 S3        29.72F
OGALLALA       PTSUNNY   73  42  32 W8        29.71S
$$

NEZ005>010-023>029-035>040-094-302300-
NORTH CENTRAL NEBRASKA

CITY           SKY/WX    TMP DP  RH WIND       PRES   REMARKS
VALENTINE      MOSUNNY   73  44  35 W31G40    29.62R
AINSWORTH      SUNNY     73  42  32 W23G32    29.65R
BROKEN BOW     SUNNY     79  41  25 SW15G23   29.69S
O`NEILL        MOSUNNY   78  45  30 SW20G26   29.66S
ORD            SUNNY     79  40  24 SW15G23   29.67S
THEDFORD       SUNNY     76  42  28 W16G29    29.69R
$$

NEZ041-046>049-061>064-073>077-083>087-302300-
SOUTH CENTRAL NEBRASKA

CITY           SKY/WX    TMP DP  RH WIND       PRES   REMARKS
GRAND ISLAND   SUNNY     73  62  68 SE14G22   29.72F
AURORA         MOSUNNY   71  61  71 S10       29.73F
HASTINGS       SUNNY     72  60  66 SE13      29.73F
HEBRON         HVY RAIN  64  62  91 SE7       29.75F
HOLDREGE       SUNNY     77  41  27 S5        29.71F
KEARNEY *      SUNNY     79  43  27 SE6       29.72S
YORK           CLOUDY    66  63  88 S9        29.75F
$$

NEZ011>018-030>034-042>045-302300-
NORTHEAST NEBRASKA

CITY           SKY/WX    TMP DP  RH WIND       PRES   REMARKS
NORFOLK        MOSUNNY   69  62  78 S17G25    29.73S
ALBION         SUNNY     73  58  59 S16G22    29.70F
BLAIR          RAIN      65  64  94 SE12      29.78F
COLUMBUS *     CLOUDY    66  61  82 S10       29.76F
FREMONT        LGT RAIN  65  63  91 SE13      29.77R
TEKAMAH        LGT RAIN  66  64  93 S10       29.78F
WAYNE          CLOUDY    67  63  86 S16G22    29.75R
$$

NEZ050>053-065>068-078-088>093-302300-
SOUTHEAST NEBRASKA

CITY           SKY/WX    TMP DP  RH WIND       PRES   REMARKS
LINCOLN        LGT RAIN  64  63  94 SE10      29.77F FOG
OMAHA EPPLEY   RAIN      66  64  93 CALM      29.81R FOG
BEATRICE       TSTM      65  64  96 NW13      29.77R VSB 1
FALLS CITY     CLOUDY    73  66  78 N12       29.76F
NEBRASKA CITY  LGT RAIN  65  65 100 E7        29.77F
PLATTSMOUTH    LGT RAIN  65  63  93 E3        29.78F
$$

NEZ044-045-051>053-067-302300-
OMAHA AREA

CITY           SKY/WX    TMP DP  RH WIND       PRES   REMARKS
OMAHA EPPLEY   RAIN      66  64  93 CALM      29.81R FOG
BLAIR          RAIN      65  64  94 SE12      29.78F
FREMONT        LGT RAIN  65  63  91 SE13      29.77R
MILLARD        RAIN      65  64  95 CALM      29.78F
OFFUTT AFB     LGT RAIN  66  66 100 CALM      29.79F FOG
PLATTSMOUTH    LGT RAIN  65  63  93 E3        29.78F
WAHOO          RAIN      65  62  90 SE15      29.76F
$$


USA.gov is the U.S. government's official web portal to all federal, state and local government web resources and services.